Date String (YYYY-MM-DD hh:mm:ss) UTC,Instrument flags,Ambient pressure (hPa),Sample flow (lpm),Bypass flow (lpm),Sample temperature (°C),Ambient temperature (°C),ASC tube jacket temperature (°C),LED temperature (°C),Box temperature (°C),Sample RH (%),Span deviation,Mass concentration (μg/m³),Mass concentration (μg/m³),Mass concentration (μg/m³)
DateTimeUTC,F1_M11,P_M11,Q1_M11,Q2_M11,T1_M11,T2_M11,T3_M11,T4_M11,T5_M11,U1_M11,ZSPAN_M11,X0_M11,X2_M11,X1_M11
2023-01-25 06:00:00,,0824.8,5.00,0.00,22.7,23.0,00.0,31.3,24.6,10.1,-002.1,0017.86,0012.14,0011.48
2023-01-25 06:01:00,,0824.8,4.99,0.00,22.7,22.9,00.0,31.4,24.7,10.1,-002.1,0017.88,0012.11,0011.39
2023-01-25 06:02:00,,0824.8,4.99,0.00,22.7,22.4,00.0,31.4,24.6,10.2,-002.1,0018.61,0012.09,0011.34
2023-01-25 06:03:00,,0824.8,5.00,0.00,22.7,22.1,00.0,31.4,24.6,10.1,-002.0,0018.91,0012.08,0011.31
2023-01-25 06:04:00,,0824.7,5.00,0.00,22.7,21.7,00.0,31.4,24.5,09.8,-001.8,0018.91,0011.97,0011.20
2023-01-25 06:05:00,,0824.8,5.00,0.00,22.7,21.5,00.0,31.4,24.4,09.8,-001.8,0019.30,0011.86,0011.09
2023-01-25 06:06:00,,0824.7,5.02,0.00,22.7,21.3,00.0,31.4,24.4,09.8,-001.8,0019.44,0011.89,0011.10
2023-01-25 06:07:00,,0824.7,5.04,0.00,22.6,21.2,00.0,31.4,24.4,09.8,-001.7,0019.53,0011.99,0011.17
2023-01-25 06:08:00,,0824.7,4.98,0.00,22.6,21.1,00.0,31.4,24.3,09.8,-001.8,0019.51,0011.97,0011.18
2023-01-25 06:09:00,,0824.6,5.00,0.00,22.6,21.0,00.0,31.4,24.3,09.8,-001.7,0019.60,0011.96,0011.15
2023-01-25 06:10:00,,0824.7,5.00,0.00,22.6,20.9,00.0,31.4,24.3,09.9,-001.7,0020.07,0011.96,0011.12
2023-01-25 06:11:00,,0824.7,5.00,0.00,22.5,20.9,00.0,31.4,24.3,09.8,-001.7,0020.59,0011.95,0011.09
2023-01-25 06:12:00,,0824.6,5.02,0.00,22.5,20.8,00.0,31.3,24.2,09.9,-001.5,0020.47,0011.87,0011.05
2023-01-25 06:13:00,,0824.7,5.02,0.00,22.5,20.8,00.0,31.3,24.2,09.9,-001.6,0019.65,0011.75,0011.00
2023-01-25 06:14:00,,0824.8,5.00,0.00,22.5,20.8,00.0,31.3,24.1,09.7,-001.9,0018.99,0011.59,0010.89
2023-01-25 06:15:00,,0824.8,5.01,0.00,22.4,20.8,00.0,31.3,24.1,09.2,-002.0,0018.44,0011.35,0010.67
2023-01-25 06:16:00,,0824.8,5.01,0.00,22.5,21.6,00.0,31.3,24.3,09.1,-002.0,0017.48,0011.15,0010.50
2023-01-25 06:17:00,,0824.8,5.00,0.00,22.6,22.5,00.0,31.3,24.5,09.2,-002.0,0017.09,0010.95,0010.34
2023-01-25 06:18:00,,0824.8,5.01,0.00,22.7,23.1,00.0,31.3,24.7,09.2,-002.0,0016.88,0010.81,0010.21
2023-01-25 06:19:00,,0824.8,4.99,0.00,22.7,22.7,00.0,31.4,24.7,09.2,-001.9,0016.82,0010.72,0010.11
2023-01-25 06:20:00,,0824.8,5.00,0.00,22.7,22.3,00.0,31.4,24.6,09.1,-002.1,0016.46,0010.57,0010.00
2023-01-25 06:21:00,,0824.8,5.01,0.00,22.7,22.0,00.0,31.4,24.5,08.9,-002.2,0015.88,0010.35,0009.82
2023-01-25 06:22:00,,0824.8,5.00,0.00,22.7,21.7,00.0,31.4,24.5,09.0,-002.1,0015.06,0010.20,0009.71
2023-01-25 06:23:00,,0824.8,5.00,0.00,22.7,21.5,00.0,31.4,24.5,09.0,-002.1,0014.95,0010.10,0009.61
2023-01-25 06:24:00,,0824.8,5.00,0.00,22.7,21.4,00.0,31.4,24.4,09.0,-002.0,0014.90,0010.06,0009.56
2023-01-25 06:25:00,,0824.8,4.99,0.00,22.7,21.3,00.0,31.4,24.4,08.9,-001.8,0014.44,0010.02,0009.50
2023-01-25 06:26:00,,0824.8,4.99,0.00,22.6,21.2,00.0,31.4,24.4,08.9,-001.7,0014.55,0010.13,0009.58
2023-01-25 06:27:00,,0824.8,4.99,0.00,22.6,21.2,00.0,31.4,24.4,09.0,-001.5,0014.64,0010.21,0009.69
2023-01-25 06:28:00,,0824.8,4.99,0.00,22.6,21.1,00.0,31.4,24.3,09.1,-001.4,0014.64,0010.28,0009.76
2023-01-25 06:29:00,,0824.7,4.99,0.00,22.6,21.1,00.0,31.4,24.3,09.1,-001.3,0014.65,0010.34,0009.84
2023-01-25 06:30:00,,0824.7,5.01,0.00,22.6,21.0,00.0,31.4,24.3,09.1,-001.2,0014.49,0010.35,0009.89
2023-01-25 06:31:00,,0824.7,5.01,0.00,22.6,21.0,00.0,31.4,24.3,09.1,-001.2,0014.55,0010.42,0009.95
2023-01-25 06:32:00,,0824.7,5.01,0.00,22.6,21.0,00.0,31.4,24.3,09.1,-001.2,0014.83,0010.58,0010.07
2023-01-25 06:33:00,,0824.7,5.01,0.00,22.5,20.9,00.0,31.4,24.2,09.1,-001.4,0014.85,0010.63,0010.14
2023-01-25 06:34:00,,0824.7,4.99,0.00,22.5,21.1,00.0,31.3,24.3,09.2,-001.4,0015.10,0010.68,0010.20
2023-01-25 06:35:00,,0824.7,4.99,0.00,22.6,22.0,00.0,31.3,24.4,09.2,-001.5,0015.50,0010.67,0010.21
2023-01-25 06:36:00,,0824.8,5.00,0.00,22.7,22.9,00.0,31.4,24.7,09.2,-001.4,0016.13,0010.71,0010.26
2023-01-25 06:37:00,,0824.8,4.99,0.00,22.8,23.0,00.0,31.4,24.8,09.1,-001.5,0016.30,0010.81,0010.34
2023-01-25 06:38:00,,0824.8,5.00,0.00,22.8,22.6,00.0,31.4,24.7,09.1,-001.5,0016.52,0010.93,0010.44
2023-01-25 06:39:00,,0824.8,5.01,0.00,22.8,22.2,00.0,31.5,24.6,09.1,-001.7,0016.69,0011.02,0010.50
2023-01-25 06:40:00,,0824.7,5.01,0.00,22.8,21.9,00.0,31.5,24.6,09.2,-001.8,0016.81,0011.10,0010.56
2023-01-25 06:41:00,,0824.8,4.99,0.00,22.8,21.7,00.0,31.5,24.5,09.2,-001.7,0016.87,0011.16,0010.63
2023-01-25 06:42:00,,0824.6,4.99,0.00,22.8,21.5,00.0,31.5,24.5,09.3,-001.7,0017.60,0011.28,0010.73
2023-01-25 06:43:00,,0824.8,5.02,0.00,22.7,21.4,00.0,31.5,24.5,09.3,-001.8,0019.29,0011.40,0010.85
2023-01-25 06:44:00,,0824.6,5.01,0.00,22.7,21.3,00.0,31.5,24.5,09.3,-001.9,0019.82,0011.51,0010.93
2023-01-25 06:45:00,,0824.6,5.00,0.00,22.7,21.2,00.0,31.5,24.4,09.3,-001.9,0019.79,0011.58,0010.99
2023-01-25 06:46:00,,0824.7,4.99,0.00,22.7,21.2,00.0,31.5,24.4,09.3,-001.9,0020.22,0011.65,0011.07
2023-01-25 06:47:00,,0824.6,5.00,0.00,22.7,21.1,00.0,31.5,24.4,09.4,-001.9,0020.09,0011.73,0011.15
2023-01-25 06:48:00,,0824.6,5.02,0.00,22.7,21.1,00.0,31.5,24.4,09.4,-001.9,0020.18,0011.76,0011.20
2023-01-25 06:49:00,,0824.6,5.00,0.00,22.7,21.1,00.0,31.4,24.4,09.4,-002.0,0020.19,0011.79,0011.25
2023-01-25 06:50:00,,0824.8,4.99,0.00,22.6,21.0,00.0,31.4,24.3,09.4,-001.9,0020.15,0011.82,0011.30
2023-01-25 06:51:00,,0824.6,5.00,0.00,22.6,20.9,00.0,31.4,24.3,09.4,-001.8,0020.23,0011.87,0011.34
2023-01-25 06:52:00,,0824.7,5.01,0.00,22.6,21.1,00.0,31.4,24.3,09.4,-001.8,0020.32,0011.92,0011.37
2023-01-25 06:53:00,,0824.7,5.00,0.00,22.7,22.0,00.0,31.4,24.5,09.4,-001.8,0020.09,0011.93,0011.37
2023-01-25 06:54:00,,0824.6,4.99,0.00,22.7,22.9,00.0,31.4,24.7,09.4,-001.7,0018.88,0011.91,0011.38
2023-01-25 06:55:00,,0824.8,5.00,0.00,22.8,23.1,00.0,31.5,24.9,09.5,-001.8,0018.86,0011.97,0011.44
2023-01-25 06:56:00,,0824.8,4.99,0.00,22.9,22.7,00.0,31.5,24.8,09.5,-001.9,0018.83,0012.02,0011.50
2023-01-25 06:57:00,,0824.6,5.00,0.00,22.9,22.3,00.0,31.5,24.7,09.6,-001.9,0018.13,0012.07,0011.58
2023-01-25 06:58:00,,0824.4,5.00,0.00,22.8,22.0,00.0,31.5,24.7,09.6,-001.8,0017.70,0012.13,0011.65
2023-01-25 06:59:00,,0824.4,5.01,0.00,22.8,21.7,00.0,31.5,24.6,09.7,-002.0,0017.64,0012.19,0011.72
